Dewpoint
16 16 16 16 15 15 15 14 12 11 12 12 11 10 10 11 10 10 10 10 9 10 11 11 11 11 12 12 12 12 12 9 9 11 12 12 11 11 12 12 12 12 12 12 12 12 12 12 12 12 11 11 10 10 9 9 8 8 8 8 8 8 9 9 9 9 9 9 8 8 8 8 8 8 9 9 9 10 10 10 10 10 11 12 12
16 16 15 14 14 15 15 14 12 11 12 11 10 11 11 12 12 12 11 10 11 12 13 13 13 13 13 12 12 12 12 11 12 12 12 12 12 13 13 13 12 12 12 12 12 11 11 11 11 11 11 10 10 10 10 10 9 8 8 8 8 8 8 8 8 8 8 8 8 8 8 8 8 8 8 9 9 10 10 10 10 10 11 11 12
15 13 13 14 14 15 14 12 10 11 13 12 11 12 12 12 13 13 12 13 13 13 13 13 13 13 13 13 13 13 12 12 13 13 12 13 13 13 13 12 12 12 12 11 11 11 11 11 11 11 11 10 10 10 10 9 9 8 8 8 8 8 8 8 8 8 9 9 9 9 8 8 9 9 9 9 9 9 9 9 10 10 10 10 10
13 13 15 15 15 14 13 11 11 13 14 13 12 12 12 13 13 13 13 13 14 14 14 14 14 13 13 13 13 13 13 12 12 12 12 12 12 12 12 12 12 11 11 11 11 11 11 10 11 11 11 11 10 10 10 9 10 9 10 10 10 9 9 9 9 10 10 10 10 10 10 10 10 10 10 9 9 10 10 10 10 10 10 10 10
14 16 16 14 14 14 12 10 12 14 14 13 13 13 13 13 13 14 14 14 14 14 14 14 14 13 13 13 13 14 12 10 11 12 11 11 10 7 7 9 10 10 11 11 10 11 11 10 11 11 11 11 11 10 10 10 10 10 11 11 11 10 11 10 11 11 11 11 11 11 11 11 11 11 10 10 11 11 11 10 10 11 11 11 10
14 14 13 12 12 12 8 8 12 14 13 14 13 13 14 14 13 14 14 14 14 14 13 13 14 14 13 13 14 13 10 10 12 11 9 9 8 4 -1 2 8 10 10 11 10 10 10 10 11 11 10 10 11 11 11 11 11 11 11 11 11 11 11 11 11 11 11 11 12 12 12 11 12 12 11 11 11 11 11 11 11 11 11 11 11
10 11 11 10 10 9 9 11 14 14 14 15 14 13 14 13 13 13 13 13 13 13 14 13 13 13 13 13 13 11 9 11 12 10 9 9 10 8 -0 -3 7 10 10 10 10 10 10 10 10 10 10 10 10 11 11 11 11 10 10 10 11 10 10 10 11 11 11 11 11 11 12 11 12 12 12 12 12 11 11 11 11 11 11 11 11
8 12 14 11 11 13 14 15 15 13 13 14 13 13 13 13 13 13 12 12 13 13 13 13 13 13 13 13 12 9 9 11 11 9 10 9 9 8 3 -2 3 8 9 10 10 10 10 10 10 10 10 10 10 10 10 10 10 10 10 10 10 9 9 9 9 10 10 10 10 10 11 11 11 10 11 10 11 11 11 12 12 12 11 11 11
12 15 14 14 14 15 14 14 13 11 11 11 11 11 12 13 14 13 12 13 13 13 14 14 13 13 13 12 10 9 9 11 10 9 10 9 8 8 7 1 -1 4 8 9 10 10 9 9 9 9 9 9 9 10 10 10 10 10 10 10 9 8 9 10 10 10 10 9 9 9 10 9 9 9 9 9 9 10 11 10 11 11 12 12 12
15 15 14 15 14 13 12 11 10 9 10 11 11 12 13 14 14 13 12 13 13 14 14 14 13 13 12 11 10 9 10 10 9 9 9 8 9 9 7 1 -4 2 8 9 9 10 9 9 9 9 9 9 9 9 9 9 10 10 10 10 9 9 10 10 10 9 9 9 9 9 9 9 9 9 9 9 9 9 10 10 10 10 11 12 12
16 15 14 14 11 9 10 10 9 9 10 11 13 13 13 13 14 13 13 14 13 14 14 13 13 12 11 11 10 9 9 9 9 9 9 9 10 8 3 -3 -6 1 8 10 10 10 9 9 9 9 9 9 9 9 9 9 9 9 9 9 9 9 10 10 9 9 9 9 9 10 10 10 9 9 9 9 9 10 10 11 11 11 10 11 12
16 15 13 10 8 9 10 10 11 11 11 12 13 14 13 13 13 13 13 14 14 14 13 12 12 11 10 10 10 9 10 10 9 9 9 10 8 2 -4 -7 -5 3 8 10 10 9 9 9 9 9 9 9 9 8 8 8 8 9 9 9 9 9 9 10 10 10 10 10 10 10 10 10 10 9 9 10 10 11 11 10 11 11 10 11 11
14 14 11 9 9 9 10 11 11 11 13 13 12 13 13 13 13 14 14 14 14 13 12 11 11 11 10 10 10 10 10 10 10 10 10 8 2 -6 -9 -6 0 7 9 9 9 9 9 8 8 8 8 9 9 8 8 8 9 9 9 9 9 9 9 9 9 9 10 10 10 10 10 10 10 9 10 10 10 11 11 11 11 11 11 11 11
12 13 11 10 10 10 10 11 11 13 14 13 13 13 13 13 14 14 14 14 14 13 12 11 11 10 10 10 11 10 10 10 10 9 7 2 -6 -12 -10 -5 3 8 8 7 8 7 7 7 7 7 8 9 9 9 9 8 8 8 8 8 8 8 9 9 9 9 9 9 10 10 9 9 9 9 10 10 10 10 11 11 11 11 11 11 11
11 12 10 10 10 10 10 11 12 13 14 13 14 13 13 14 15 14 14 14 13 12 11 11 10 10 11 11 10 10 10 10 9 7 4 0 -7 -14 -14 -11 -4 1 1 1 1 2 4 6 7 7 8 8 8 8 8 8 8 8 8 8 9 9 9 9 9 9 9 9 10 9 9 9 9 9 9 9 9 9 10 10 10 10 10 10 10
13 13 10 10 11 10 11 12 13 14 14 14 14 13 14 15 15 14 13 13 12 12 11 11 10 11 11 11 11 11 9 8 7 8 7 1 -9 -19 -21 -21 -18 -17 -15 -13 -10 -5 1 4 5 6 7 8 8 8 9 9 9 9 9 9 9 9 9 9 9 9 9 9 9 9 9 9 9 9 9 9 9 9 9 9 9 9 9 9 9
14 14 11 10 11 11 12 13 13 14 13 13 14 14 14 14 14 14 13 13 12 11 11 10 10 11 11 11 10 8 7 8 9 8 5 -3 -16 -22 -22 -24 -24 -26 -24 -17 -8 -2 2 5 7 8 9 9 10 10 10 10 10 10 10 9 9 9 9 8 9 9 8 9 9 8 8 8 8 9 9 9 9 9 9 9 9 9 9 9 9
15 14 11 11 12 12 13 14 14 14 14 14 14 15 15 14 14 13 12 12 12 11 11 11 10 10 10 10 9 7 7 9 8 5 0 -7 -14 -17 -24 -31 -24 -16 -10 -5 -0 2 5 7 10 10 10 10 11 10 10 10 10 9 9 9 9 9 9 9 8 8 7 8 8 8 8 8 8 8 8 8 8 9 9 9 9 9 9 9 9
16 14 12 12 12 13 14 15 15 14 14 14 14 15 14 14 13 12 11 11 11 11 12 11 10 9 9 8 8 8 8 8 7 3 -1 -5 -8 -11 -17 -20 -12 -5 -1 1 3 3 3 6 9 11 11 11 11 10 10 10 9 9 9 9 9 9 8 8 7 7 7 7 7 8 8 8 8 9 8 8 9 9 9 9 9 9 9 9 10
15 13 12 13 14 14 14 15 15 14 15 16 15 14 13 13 12 12 12 11 11 11 10 9 8 8 8 8 9 9 8 8 7 5 1 -2 -2 -4 -8 -11 -7 -1 3 3 3 3 2 2 6 8 9 8 8 9 9 9 9 9 9 9 8 8 7 7 7 8 8 7 7 8 8 8 8 9 9 9 9 9 9 9 9 9 9 10 10
13 13 14 15 16 16 15 15 15 15 15 15 13 12 12 12 12 12 12 11 11 11 9 7 7 8 9 9 9 8 8 8 8 6 3 3 4 2 -1 -5 -6 -2 2 3 3 3 3 2 1 3 4 2 3 7 9 9 9 9 9 8 8 7 8 8 9 9 8 8 8 8 8 8 8 9 9 9 9 9 9 9 9 9 9 10 10
15 15 16 16 16 16 15 15 15 15 14 13 12 12 12 12 12 12 11 10 10 10 9 8 8 8 8 8 8 7 8 8 8 6 5 5 5 4 2 -1 -6 -6 1 4 3 3 3 2 0 -0 -1 -4 -2 6 9 9 9 9 9 9 8 8 9 9 9 9 9 9 9 9 9 9 9 9 9 9 9 9 9 9 9 9 10 9 10
15 16 15 16 16 16 15 14 14 14 13 13 12 12 12 12 11 8 7 9 9 8 7 7 7 7 7 7 7 6 7 7 6 6 5 5 5 3 3 0 -8 -8 0 4 3 3 2 0 -2 -4 -5 -7 -2 6 10 10 9 9 9 9 9 9 9 9 9 9 9 9 10 10 10 9 9 9 9 9 10 9 9 9 9 9 10 10 10
15 16 16 16 15 14 13 13 12 13 12 12 12 11 10 11 9 4 5 9 9 6 6 6 6 5 5 5 5 5 4 3 3 4 4 5 4 3 -0 -6 -17 -11 -1 2 1 0 -1 -3 -4 -2 0 2 4 8 9 9 9 9 9 9 9 10 10 10 10 10 10 10 10 10 10 10 10 10 10 10 10 10 10 10 10 10 10 10 10
16 15 15 14 12 10 11 12 11 11 12 11 11 10 9 10 9 4 6 9 7 4 4 4 4 3 3 3 2 1 -1 -1 1 3 3 2 0 -5 -12 -23 -25 -13 -6 -5 -6 -5 -3 -2 1 4 6 6 7 8 8 8 8 8 8 9 9 9 9 9 9 10 10 10 10 10 10 10 10 10 10 10 10 10 10 10 10 10 10 10 10
15 14 13 12 12 11 12 12 11 11 11 11 10 8 7 7 6 5 5 6 5 3 2 1 1 2 0 -0 -2 -6 -6 -3 -1 -2 -5 -9 -14 -23 -29 -27 -25 -24 -18 -12 -8 -3 1 4 5 6 7 6 7 7 8 8 8 8 9 9 9 8 8 7 8 9 10 10 10 10 10 10 10 10 10 10 10 10 10 10 10 10 10 10 10
13 13 12 12 12 11 11 11 10 10 9 8 7 5 5 5 6 6 5 2 -1 -2 -2 -1 -0 -2 -6 -7 -11 -17 -15 -9 -10 -15 -20 -25 -27 -27 -27 -29 -32 -24 -9 -1 1 3 5 6 6 6 7 7 7 8 8 8 9 9 9 9 9 9 9 8 9 9 10 10 10 10 10 10 10 10 10 10 10 10 10 10 10 10 10 10 10
12 12 12 11 9 8 7 7 7 6 5 4 4 3 1 2 4 4 1 -5 -11 -13 -8 -5 -6 -12 -17 -16 -18 -26 -26 -21 -25 -29 -27 -27 -29 -29 -27 -20 -11 -3 3 5 6 6 7 7 7 8 8 8 8 8 8 8 9 9 9 9 9 9 9 9 9 9 9 9 9 9 10 10 10 10 10 10 10 10 10 10 10 10 10 10 10
11 10 9 8 8 7 5 3 4 5 6 6 4 -1 -7 -6 1 2 -2 -9 -15 -20 -18 -14 -18 -26 -23 -21 -25 -27 -27 -27 -27 -27 -27 -27 -22 -15 -8 -2 3 5 6 6 7 7 8 8 8 9 8 8 8 8 8 8 8 9 9 9 9 9 9 9 9 9 9 9 9 9 9 10 10 10 10 10 10 10 10 10 10 10 10 10 10
9 7 6 5 5 5 4 2 2 4 7 7 5 2 -1 -1 2 3 1 -2 -4 -9 -13 -13 -18 -23 -23 -23 -27 -27 -25 -27 -27 -23 -18 -11 -5 -1 3 5 6 6 6 6 7 8 8 9 9 8 8 8 8 8 8 8 9 8 8 8 8 8 8 8 9 9 9 9 8 8 8 9 9 9 9 9 9 9 10 10 10 10 10 10 10
7 6 5 4 4 5 5 5 4 2 1 0 0 3 5 5 4 4 4 2 1 -1 -3 -4 -6 -10 -16 -20 -21 -25 -29 -27 -18 -10 -4 1 3 5 6 6 7 7 7 7 7 8 8 9 8 8 8 8 9 9 9 9 9 8 8 8 8 8 8 8 8 8 8 7 8 8 8 8 8 8 8 8 8 8 9 9 10 10 10 10 10
6 5 3 1 1 3 4 5 5 4 1 -0 1 4 6 4 3 4 5 3 2 2 1 0 0 -3 -7 -9 -12 -23 -31 -16 -6 -0 3 5 6 6 7 7 8 8 8 7 7 8 8 8 8 9 9 9 9 9 8 8 8 8 7 7 7 7 7 7 7 7 7 7 7 7 7 7 8 7 7 8 8 8 8 8 9 9 9 10 10
6 3 -1 -5 -4 0 2 2 3 4 4 4 5 5 4 3 3 5 5 3 3 2 1 2 2 -0 -2 -2 -6 -21 -22 -5 3 5 5 6 6 7 8 8 8 8 8 8 8 8 8 8 9 9 9 8 8 8 7 7 7 7 7 7 7 7 6 6 6 6 6 6 7 6 7 7 7 7 7 7 7 8 8 8 8 9 9 9 9
0 -2 -3 -3 -1 2 3 4 5 4 3 3 4 5 4 3 3 4 3 3 3 2 2 3 2 0 1 0 -6 -22 -11 1 6 6 5 6 7 7 8 8 8 8 8 8 7 7 8 8 9 8 7 7 7 7 7 7 7 7 7 7 7 7 6 6 6 6 6 6 6 6 6 6 6 6 6 6 6 6 7 7 7 8 8 8 9
-9 -8 -1 2 4 3 3 3 2 -0 -1 1 3 4 4 3 3 3 3 3 3 2 2 3 2 0 1 -0 -9 -16 -3 5 6 6 5 6 7 7 8 8 8 8 8 7 7 7 8 8 7 7 6 7 7 7 7 7 7 7 7 7 7 6 6 6 6 6 6 6 6 5 5 5 6 6 6 5 6 6 6 6 6 7 7 8 8
-4 -3 -1 0 0 -1 -4 -4 -6 -7 -3 2 2 2 3 4 2 2 2 3 2 1 2 3 1 1 2 -2 -10 -8 2 6 6 5 6 7 8 7 7 8 8 8 8 7 7 7 8 7 7 6 7 7 7 7 7 7 7 7 7 7 6 6 6 6 6 6 6 6 6 6 6 6 6 6 6 6 6 6 6 6 6 6 7 7 8
4 4 3 3 3 2 0 -1 -1 -1 1 4 3 1 2 3 2 1 2 2 2 2 2 2 1 1 0 -5 -8 -1 5 6 6 6 6 7 7 7 6 8 8 8 8 8 7 7 7 7 6 7 7 7 7 7 7 7 7 7 7 6 6 6 6 6 6 6 6 6 6 6 6 6 6 6 6 6 6 6 6 6 6 6 7 7 7
5 4 3 3 6 7 5 4 4 2 1 3 2 1 1 1 2 2 2 1 1 2 1 1 1 1 -1 -4 -2 4 6 6 6 6 6 7 8 7 7 8 8 8 8 8 7 7 7 6 6 7 7 7 7 7 7 7 7 7 7 6 6 6 6 6 6 6 6 7 7 7 7 7 7 7 7 6 6 6 6 6 6 7 7 6 6
1 0 -0 2 5 6 5 4 3 2 1 1 1 2 2 1 1 2 1 0 1 1 1 1 1 0 -1 -1 2 6 7 6 6 7 7 7 7 7 7 8 8 8 8 8 7 6 6 6 6 6 7 7 7 7 7 7 7 7 6 6 6 6 6 6 7 7 7 7 7 7 7 7 7 7 7 7 7 6 6 6 6 6 7 6 6
-0 -1 -0 2 5 5 4 3 2 1 0 1 1 1 2 1 1 1 1 1 0 0 1 0 -0 -1 -1 1 3 6 7 6 6 7 7 7 7 7 8 8 7 7 7 7 7 6 6 6 6 6 7 7 7 7 7 7 6 6 6 6 6 6 6 7 7 8 8 8 8 8 8 8 8 8 8 7 7 7 7 7 7 7 7 7 7
3 4 4 4 5 6 5 3 2 1 1 2 1 -0 0 1 1 1 1 1 -0 -1 0 -0 -3 -3 -0 2 4 5 6 6 6 7 7 7 7 8 7 6 6 7 8 7 6 7 6 6 6 6 6 6 7 7 7 6 6 6 6 6 6 6 7 7 8 8 8 8 8 8 8 8 8 9 8 8 8 8 7 7 7 7 7 7 7
6 7 6 6 6 6 4 2 2 2 2 1 -1 -3 -1 2 1 -1 1 1 -1 -2 -1 -1 -4 -3 1 4 4 6 6 6 6 7 7 7 8 8 6 4 5 7 8 7 7 7 7 6 6 6 6 6 6 7 7 6 6 6 6 6 6 7 7 8 8 8 8 8 8 9 8 9 9 9 9 9 9 8 8 8 8 8 8 8 8
7 6 6 6 4 3 3 3 4 2 -1 -1 -1 -1 -0 1 1 -1 -0 -1 -2 -2 -2 -4 -3 0 3 4 5 6 6 6 7 8 8 7 7 6 3 1 4 7 8 8 7 7 6 6 6 7 6 6 6 7 6 6 6 6 6 6 7 7 7 8 8 8 8 8 8 9 9 9 9 9 9 9 9 9 8 8 9 9 9 9 9
7 6 6 4 3 2 2 2 2 1 -1 -0 2 2 1 1 0 -1 -2 -2 -2 -2 -3 -3 -1 2 3 4 6 7 6 6 7 7 7 5 3 2 0 -0 2 6 8 8 8 7 6 6 7 6 5 6 7 6 6 6 6 6 6 7 7 7 7 7 7 8 8 8 8 9 9 9 9 9 9 9 9 9 9 9 9 9 9 9 10
7 6 5 5 5 5 3 1 1 1 1 1 2 2 1 -0 -0 -0 -1 -2 -3 -3 -4 -1 1 3 4 5 6 6 6 6 7 7 7 3 -0 -0 1 1 1 5 7 9 8 7 7 7 7 5 5 6 6 6 6 6 6 6 7 7 7 7 7 7 7 8 8 8 8 8 8 8 8 9 9 9 9 9 10 10 9 10 10 10 10
6 5 5 4 4 4 3 1 1 1 -0 -1 -1 1 0 -1 -0 -0 -1 -1 -3 -5 -3 1 2 3 4 6 7 6 7 7 7 7 7 4 1 0 1 1 1 3 6 8 8 7 7 7 6 4 4 6 6 6 5 5 6 7 7 7 7 7 7 7 7 8 8 8 8 8 8 8 8 8 9 9 9 9 9 9 9 9 9 9 9
5 4 4 4 4 3 1 -0 0 0 -1 -3 -2 -1 -1 -1 -1 -0 -1 -2 -4 -5 -2 2 3 3 5 7 7 6 7 7 7 7 7 5 2 1 2 2 2 2 4 7 8 8 7 6 4 3 4 6 6 5 5 5 5 7 7 7 7 7 7 7 8 8 8 8 8 8 8 8 8 8 8 9 9 9 9 9 9 9 8 8 8
4 4 3 4 4 3 1 0 0 0 -1 -1 -2 -2 -1 -1 -1 -1 -1 -2 -4 -4 0 2 3 4 6 7 7 6 6 7 7 7 7 6 3 1 1 2 2 1 2 5 7 7 7 6 4 3 4 6 6 6 5 5 5 6 7 7 7 7 7 8 8 8 8 8 8 8 8 8 8 8 8 8 8 8 8 8 8 8 7 7 7
5 4 4 3 1 1 0 0 0 -1 -1 -0 -0 -1 -1 -0 -1 -1 -1 -3 -5 -3 1 3 3 4 6 7 6 6 6 7 7 8 8 6 4 2 2 3 3 1 1 4 6 7 7 6 3 2 4 6 6 6 6 5 5 5 5 6 7 7 8 8 8 8 8 8 8 8 8 8 8 8 8 8 8 8 7 7 7 7 7 7 6
4 5 4 2 -0 -2 -2 -1 -1 -1 -1 -0 -0 -1 -0 0 -1 -1 -2 -3 -4 -1 2 3 3 5 7 7 6 6 6 7 7 8 7 6 5 5 4 4 3 1 1 4 6 7 6 5 2 0 3 5 6 6 6 6 6 5 5 5 6 7 8 8 8 8 8 8 8 8 8 8 8 8 8 7 8 7 7 7 7 7 6 6 6
5 5 4 2 0 -1 -1 -0 -0 -2 -1 -0 -1 -1 -0 0 -0 -1 -2 -5 -4 -0 2 3 3 6 7 7 7 6 6 7 7 8 7 6 6 6 6 5 4 1 2 5 6 6 6 4 1 -2 1 5 6 6 6 6 6 6 5 5 5 5 7 7 8 8 8 8 8 8 8 8 8 7 7 7 7 7 7 7 7 6 6 6 6
Wind_Speed
10 10 10 10 11 11 11 10 8 8 9 7 7 8 8 6 5 5 5 2 1 2 4 6 4 3 5 4 5 7 10 10 9 9 8 10 11 11 12 12 12 12 12 12 11 11 12 12 12 11 11 13 14 14 15 15 15 16 15 15 15 15 14 13 15 17 16 16 18 19 18 18 19 19 18 18 18 18 20 22 22 20 17 15 15
11 12 12 12 12 11 9 8 8 10 10 8 7 6 5 5 5 4 1 3 4 4 6 6 4 4 5 6 6 7 9 9 10 10 10 10 10 10 10 12 12 12 12 11 11 11 13 13 12 11 11 13 14 15 16 15 15 15 15 15 16 15 15 16 18 21 22 21 20 19 19 20 20 19 18 19 20 20 22 24 25 25 24 21 19
12 14 15 13 12 11 9 9 11 12 8 6 7 6 4 5 5 5 3 4 6 5 3 3 5 6 6 7 6 7 9 9 9 10 10 10 9 9 10 11 11 12 12 12 12 12 13 13 13 12 12 14 14 15 15 14 14 15 16 15 15 15 15 16 18 19 19 18 17 17 18 18 18 18 19 21 22 22 22 23 23 23 24 24 24
14 15 14 13 12 10 9 12 13 10 4 5 10 8 4 5 4 5 4 3 3 2 2 3 7 8 7 7 7 7 9 10 10 9 9 9 9 9 11 11 11 12 12 12 12 12 13 12 12 12 12 13 13 13 13 14 14 14 15 16 15 15 15 16 17 17 16 16 16 16 18 19 20 21 21 22 21 20 21 21 21 21 21 21 22
16 15 13 12 12 10 10 13 13 9 5 6 8 6 4 5 4 3 3 3 2 2 5 5 7 8 8 9 8 7 10 11 9 8 9 9 11 13 13 11 11 11 11 12 12 12 13 12 13 13 13 12 13 13 15 17 17 14 15 16 16 16 17 17 18 19 18 19 19 18 20 21 23 23 22 21 20 20 21 22 21 20 20 20 19
15 14 12 12 12 10 11 12 11 8 7 6 5 4 4 2 1 1 1 3 3 4 7 8 8 9 10 9 8 8 10 9 7 9 12 13 16 19 18 13 12 12 11 12 12 12 13 13 13 14 13 13 13 14 15 17 18 16 15 15 15 17 18 17 17 18 19 19 19 19 20 19 20 21 21 20 21 21 22 22 21 20 21 21 19
13 12 12 12 11 11 10 10 8 7 7 6 4 3 2 2 2 2 5 5 5 6 9 9 10 10 9 8 8 9 10 8 8 12 14 16 19 23 21 16 13 13 12 11 11 12 13 13 15 15 14 13 14 16 17 17 18 19 19 19 18 19 20 20 19 19 19 20 20 19 19 19 19 20 20 20 21 21 22 23 24 23 23 21 19
13 13 12 12 12 11 10 9 8 8 7 6 4 2 1 2 3 6 8 8 7 9 9 10 11 9 6 6 8 7 8 7 11 13 14 17 21 23 23 20 16 15 12 10 10 12 13 13 15 14 14 15 16 17 18 18 20 20 18 18 20 21 22 22 21 20 21 22 22 21 22 22 22 22 22 22 22 22 21 22 23 23 22 20 19
15 14 12 12 12 10 10 9 7 6 4 3 2 1 2 3 5 8 10 10 10 11 10 12 12 7 3 6 8 8 7 8 12 13 15 19 22 23 24 24 20 16 12 10 9 11 13 13 14 14 14 15 16 16 17 17 18 19 17 17 20 22 21 21 20 20 20 21 22 22 22 23 23 23 23 24 24 24 23 23 24 23 22 21 21
15 13 12 12 11 9 8 7 4 3 2 2 3 3 5 5 6 9 10 11 11 11 12 12 9 6 6 8 9 9 8 10 12 15 18 21 23 23 24 24 20 14 11 10 10 12 14 14 14 15 15 16 16 16 17 16 17 18 18 19 21 21 21 22 22 21 21 23 23 23 22 22 22 22 23 24 24 24 24 24 24 25 24 23 23
14 13 12 10 9 7 5 4 3 3 3 4 4 5 7 7 8 10 11 12 12 12 13 10 6 6 8 8 8 9 9 11 14 17 20 21 23 24 24 22 18 12 10 12 12 13 15 15 15 17 17 18 18 18 18 18 19 19 19 20 21 21 21 23 24 23 24 25 25 24 24 24 24 24 24 24 24 23 23 22 23 24 24 23 23
14 13 12 9 8 6 4 4 4 4 4 5 6 7 8 8 10 11 10 11 13 11 7 6 5 4 6 7 8 9 11 14 17 18 19 21 23 23 22 19 15 12 11 13 14 15 16 17 18 18 19 18 19 20 21 21 21 20 20 21 21 21 22 22 23 23 25 26 26 27 28 28 28 27 27 26 26 25 25 25 25 25 24 24 23
14 12 11 8 6 5 4 4 4 4 4 7 8 7 9 10 11 10 10 10 10 5 6 7 4 5 6 7 8 10 13 15 16 17 20 22 22 21 19 16 14 13 13 14 15 16 17 18 19 20 20 20 19 21 22 23 23 23 24 25 26 26 26 27 27 27 28 29 30 30 31 31 30 31 30 29 28 27 27 27 25 24 25 25 24
14 11 10 7 5 5 5 4 5 6 6 8 8 8 10 11 10 9 9 8 4 2 6 5 4 6 6 7 8 10 13 14 15 19 21 20 20 19 18 15 13 13 13 14 15 17 18 20 21 21 21 20 21 23 25 26 27 28 29 30 31 31 32 32 32 31 31 31 32 33 33 32 33 33 31 29 29 29 28 26 24 23 24 25 26
12 11 9 7 5 5 5 5 6 7 7 8 9 9 10 9 9 8 6 3 2 4 4 3 4 5 6 7 7 10 13 15 17 19 19 20 20 20 18 16 15 14 14 15 17 18 18 19 20 20 20 21 24 26 27 28 29 30 31 32 33 34 34 33 32 32 31 31 32 34 35 36 37 37 36 35 35 34 33 31 31 31 30 30 30
11 10 8 5 5 5 5 6 7 8 9 9 9 10 9 8 7 7 5 3 4 4 2 4 5 7 9 8 7 11 15 16 16 17 19 20 21 20 19 18 18 18 18 18 18 18 19 20 20 20 20 22 24 26 27 28 29 31 33 35 36 36 35 34 32 32 32 31 32 33 33 34 36 38 39 39 39 39 37 36 36 36 35 34 35
11 9 7 5 5 5 6 8 9 9 10 10 8 8 7 6 5 4 3 3 4 3 3 5 6 7 8 7 8 12 14 14 14 16 20 20 20 20 20 19 20 20 20 20 20 21 22 21 19 19 20 21 24 26 27 29 30 32 33 34 34 35 34 33 32 30 28 28 28 29 28 28 29 31 33 34 35 36 36 37 36 34 31 32 34
10 9 6 4 5 6 7 9 8 9 9 9 8 7 5 3 2 2 2 4 7 6 5 5 7 8 8 9 10 11 11 12 15 18 20 20 20 21 22 21 21 21 21 22 22 23 23 19 16 18 21 22 24 26 27 29 31 31 32 32 32 32 32 31 29 26 24 23 24 25 25 23 23 24 25 26 27 27 29 32 33 31 29 30 31
9 8 6 5 7 8 9 9 9 8 7 6 5 4 3 3 3 2 4 5 5 4 3 5 9 10 9 10 9 7 8 12 15 17 20 22 22 21 21 22 22 22 23 24 24 24 24 20 15 17 20 22 24 26 27 27 29 30 30 30 30 29 28 26 24 24 24 23 22 21 20 18 18 19 20 21 22 22 21 22 24 26 27 29 27
8 7 6 5 7 8 8 9 7 5 4 3 2 3 3 3 3 3 3 3 4 6 7 8 9 8 8 8 7 6 8 11 14 17 21 23 23 21 21 23 24 24 24 25 25 25 25 23 19 17 19 22 24 25 25 25 26 28 27 27 26 24 22 21 22 24 24 22 20 19 18 17 16 17 18 18 17 16 15 15 16 19 22 24 23
6 5 5 5 5 6 5 5 3 1 1 0 2 4 3 2 2 1 3 4 5 6 8 7 6 6 6 6 7 8 9 11 13 18 21 22 22 22 23 25 26 26 26 26 26 25 26 25 24 22 22 24 25 25 24 22 22 22 22 23 22 19 18 19 21 23 23 20 19 18 18 18 16 16 16 16 14 12 13 13 14 15 18 21 22
5 6 6 6 5 4 2 0 1 3 4 3 3 3 2 1 1 3 4 4 4 5 6 5 5 6 7 7 9 10 11 12 15 19 21 21 21 23 24 27 29 28 26 26 26 27 27 26 26 26 27 27 25 22 20 19 18 18 18 20 19 17 17 20 21 22 21 19 18 18 18 18 17 15 15 14 12 11 11 12 13 14 16 18 20
6 6 6 4 3 2 3 5 4 5 5 4 2 1 0 0 3 5 4 3 4 5 5 5 7 8 9 10 12 12 12 14 16 19 19 19 21 24 27 30 30 27 25 26 27 27 28 28 28 29 28 25 22 18 17 17 18 18 18 19 18 17 18 20 21 20 19 18 18 18 18 18 18 17 16 14 13 12 12 12 12 13 15 17 18
4 5 6 6 6 5 5 5 4 4 3 2 1 0 1 1 4 6 5 4 6 7 7 7 8 10 9 10 11 12 13 15 16 17 17 19 22 26 28 30 28 25 24 25 26 27 29 29 28 25 23 21 18 16 16 17 18 20 21 19 17 17 19 20 20 20 19 19 19 19 19 19 18 18 17 17 16 16 16 15 15 14 15 16 17
7 7 7 7 6 4 4 4 4 4 3 1 1 2 2 2 5 9 8 4 5 8 7 7 7 9 9 9 11 14 15 15 14 16 18 21 23 26 27 27 25 24 24 25 26 27 27 25 22 19 19 19 19 19 19 20 21 22 22 20 19 20 21 22 23 22 22 22 21 20 19 19 19 18 18 20 20 19 18 17 17 16 16 17 17
10 8 8 8 6 4 4 4 3 4 4 4 4 6 5 3 6 8 6 2 3 6 6 7 7 8 10 11 14 16 16 14 15 18 20 23 25 26 25 24 24 24 24 25 25 24 22 20 18 18 20 21 21 21 21 21 21 21 20 21 22 22 23 24 24 22 22 21 21 21 21 21 21 20 20 21 21 19 18 18 18 17 17 18 18
10 9 8 7 4 3 5 4 4 6 6 4 5 6 6 5 4 3 0 2 5 5 5 7 8 9 11 13 15 17 16 15 18 21 22 24 25 25 25 25 25 24 24 24 23 21 20 19 18 19 21 21 22 21 21 21 21 21 19 20 21 22 22 22 22 21 22 22 21 21 22 22 22 21 21 21 21 20 19 19 19 19 18 19 20
10 9 7 5 4 5 6 5 5 5 3 2 2 1 1 3 2 1 4 7 8 6 6 7 9 11 13 14 16 18 17 18 21 23 24 25 26 26 26 24 23 23 23 24 23 21 22 22 21 23 24 23 22 21 21 21 21 20 19 18 19 20 20 20 21 21 22 22 22 22 23 23 22 21 21 22 22 22 21 21 21 21 21 21 22
9 8 7 5 5 6 7 6 6 4 2 3 2 2 2 4 4 6 10 11 10 9 9 9 11 13 14 15 18 19 19 21 22 23 24 25 25 24 22 22 22 22 22 23 23 22 23 24 25 26 26 24 23 23 23 22 22 22 21 20 20 21 21 21 22 23 23 24 25 25 24 23 22 21 20 21 21 20 20 21 21 22 23 22 21
8 8 9 9 9 8 6 5 6 8 5 4 5 5 6 7 8 10 12 13 13 13 12 12 13 15 15 16 18 19 20 22 22 22 23 23 21 19 19 20 21 20 21 23 23 22 24 26 25 24 24 23 23 24 25 25 25 25 25 24 24 25 24 23 24 24 24 25 26 26 25 24 23 22 22 21 20 19 18 19 19 20 21 21 21
11 10 9 10 11 9 8 6 6 7 5 2 3 4 7 8 9 10 13 15 16 16 16 15 16 17 17 18 20 21 21 21 21 21 21 20 20 19 18 19 20 19 20 22 21 21 24 25 24 24 25 25 25 25 27 27 26 27 28 27 27 27 26 25 25 25 25 25 25 24 24 24 23 23 22 22 22 21 20 20 19 19 19 19 20
14 10 7 9 10 8 6 6 6 5 4 3 5 7 6 7 9 11 13 15 15 16 17 17 18 19 20 21 23 24 23 20 20 21 22 21 21 20 19 19 20 19 19 21 22 22 23 24 24 26 27 27 27 28 29 28 28 29 29 29 29 29 28 28 28 27 26 26 26 25 24 24 24 24 23 23 22 21 20 20 19 19 19 19 20
12 7 5 7 9 6 4 5 5 6 5 5 7 7 6 6 8 9 12 14 14 16 17 17 19 21 22 23 26 27 23 19 19 22 23 22 23 23 20 19 19 19 19 22 23 24 24 25 25 27 28 29 29 29 29 30 31 31 30 29 29 30 29 29 29 28 27 27 27 26 26 26 26 26 25 24 23 22 21 20 18 17 17 18 19
7 5 5 7 7 7 7 7 5 5 6 7 8 7 6 8 8 8 10 11 12 14 15 15 18 20 20 23 27 26 20 17 19 23 23 22 22 24 21 19 19 19 20 22 24 25 25 25 25 27 29 30 30 30 31 32 32 33 32 31 31 31 31 29 28 27 26 26 26 26 26 26 26 26 26 27 26 26 25 23 21 19 17 15 15
6 7 8 9 8 7 7 6 4 5 6 8 8 7 6 8 7 7 9 9 10 12 13 13 16 18 18 23 26 23 17 16 19 22 22 21 21 23 20 18 19 21 21 23 25 25 23 23 25 28 29 30 31 32 32 32 32 33 35 34 32 31 29 27 25 25 25 25 25 26 25 25 25 24 24 24 24 24 25 24 23 22 20 17 15
8 8 8 8 9 9 8 8 8 8 8 9 9 8 7 7 7 8 8 8 10 12 11 12 14 15 17 23 25 18 13 16 18 19 21 21 21 20 18 17 21 23 22 23 25 24 22 23 26 30 31 31 32 32 32 32 32 33 36 36 33 30 28 25 24 24 24 24 24 24 23 22 21 21 21 20 19 19 20 20 18 17 17 18 16
9 9 9 9 10 12 12 13 12 11 10 10 9 8 8 7 7 8 8 9 10 11 11 12 13 12 16 23 22 14 12 17 19 18 19 20 19 17 17 19 22 22 21 23 24 24 24 26 28 31 32 32 32 31 31 31 32 34 37 36 32 29 26 23 22 22 22 22 21 20 19 19 19 18 18 18 17 17 16 15 14 13 12 13 14
9 7 6 7 8 9 10 11 10 10 10 8 6 6 7 7 7 8 8 9 10 10 10 11 11 12 17 23 22 15 15 19 19 17 17 18 17 17 18 21 22 20 20 22 23 24 25 27 29 30 32 32 31 31 29 30 32 36 37 35 31 27 23 20 21 21 20 18 18 18 18 18 18 17 17 16 16 15 14 13 13 11 10 10 10
7 4 5 8 10 7 5 6 7 7 7 6 5 5 6 6 7 7 7 8 9 9 10 11 11 12 18 23 20 17 18 19 18 17 18 17 15 16 19 21 21 20 20 22 23 24 26 27 29 32 32 32 31 30 28 31 35 37 36 34 31 27 23 22 22 20 18 18 20 19 19 18 17 17 17 16 16 14 13 13 12 10 10 10 7
9 9 8 11 10 6 4 5 5 5 5 5 5 5 5 6 7 7 7 8 9 9 10 11 11 12 17 21 19 17 17 17 16 19 20 16 14 17 20 21 20 20 21 22 23 24 26 28 31 32 32 33 31 29 30 35 38 36 34 33 31 27 24 22 20 17 17 19 19 18 17 18 18 18 18 17 15 13 11 10 9 8 8 8 5
9 10 11 11 9 7 6 4 3 6 6 5 4 5 5 5 6 7 6 7 9 9 9 10 11 13 16 19 17 17 17 15 15 19 18 14 15 19 21 19 19 19 20 22 24 24 26 29 31 31 33 34 31 29 33 37 37 35 34 33 30 26 23 21 18 15 16 18 18 17 19 21 22 23 24 21 18 14 12 10 9 7 7 7 5
4 6 9 10 9 7 5 2 4 6 6 5 4 5 5 5 5 7 7 7 8 9 9 9 11 13 15 16 17 18 17 15 16 18 15 12 15 19 19 18 20 19 18 21 24 23 26 30 30 31 35 35 31 31 35 38 37 36 36 33 28 24 22 21 17 14 14 17 18 19 21 22 23 24 26 25 21 17 14 11 9 8 8 9 8
5 5 5 5 4 4 4 3 3 3 4 5 4 6 8 7 5 6 7 7 8 9 8 9 11 12 12 14 16 17 16 15 17 18 14 12 13 16 17 19 21 19 18 21 23 22 26 29 29 31 35 34 29 31 36 38 38 38 36 31 26 22 21 21 18 14 13 15 17 20 21 22 22 23 24 24 21 16 12 13 13 12 11 10 8
7 6 5 3 3 3 3 4 3 1 4 7 6 6 7 6 5 6 7 7 8 8 8 9 10 10 11 13 14 16 16 15 16 17 14 12 13 15 18 22 24 20 18 21 23 24 27 29 29 33 36 31 28 32 37 38 39 37 32 27 23 21 20 21 20 16 13 13 15 19 21 21 20 20 21 21 20 17 13 13 13 12 10 8 7
7 5 5 5 5 3 2 3 3 2 4 6 5 5 5 5 5 5 6 7 8 8 8 9 9 10 11 12 13 14 15 15 16 15 13 12 14 16 18 21 24 23 21 21 22 25 28 28 30 34 35 29 28 35 40 40 38 35 29 24 22 20 20 20 19 16 13 12 14 18 20 18 17 16 16 17 18 18 18 17 16 14 13 12 13
5 4 5 5 5 3 2 3 3 3 3 4 4 3 3 4 5 5 6 8 9 9 8 8 9 9 10 11 12 13 14 14 15 16 14 12 13 16 18 20 23 24 23 20 20 24 27 28 31 34 33 28 29 37 43 43 40 36 31 27 23 21 20 20 17 14 13 13 13 15 16 14 13 13 14 16 17 18 18 19 18 18 17 16 16
5 5 4 4 2 2 2 3 3 3 4 4 5 3 3 4 5 4 5 7 8 8 8 8 8 9 10 10 11 12 13 14 15 16 15 13 12 15 18 19 22 25 25 22 20 23 26 28 31 34 33 31 31 37 44 48 46 41 37 32 27 22 22 21 17 14 12 13 13 13 13 14 15 16 16 17 18 19 18 18 19 20 20 19 19
5 5 4 3 3 2 3 3 3 3 3 4 4 4 4 4 4 4 5 6 7 8 8 8 8 9 9 10 11 12 12 12 14 16 16 14 13 14 17 19 20 24 26 25 23 24 25 27 30 33 34 32 32 36 42 50 52 48 42 37 31 26 23 21 16 13 13 14 13 12 12 14 17 17 18 19 20 21 20 20 21 21 22 22 22
5 6 5 4 4 4 4 3 3 3 3 3 3 3 3 3 4 4 5 6 6 7 8 7 8 9 9 9 11 12 11 11 13 14 15 14 13 14 16 17 18 22 25 26 25 25 25 25 29 33 33 32 33 33 36 43 51 54 50 43 35 29 25 21 16 14 16 17 16 15 15 16 17 17 17 18 19 21 22 23 23 23 23 24 24
6 5 5 4 4 3 4 4 4 4 3 3 3 3 4 4 3 4 5 6 6 7 7 7 7 8 8 10 11 11 11 12 13 13 13 14 14 14 15 16 17 20 24 25 25 25 24 25 29 33 32 31 32 33 32 34 40 48 52 50 44 36 30 25 20 17 17 18 18 18 19 19 19 19 18 18 19 20 22 23 23 24 24 25 26
5 5 4 4 4 4 4 4 4 4 4 4 3 3 4 4 4 4 5 5 5 6 6 6 7 7 8 9 11 11 11 12 13 13 13 13 15 14 14 15 15 18 22 24 23 23 24 25 29 33 32 30 30 32 33 32 33 37 42 48 50 46 39 33 29 25 22 20 19 19 20 20 21 21 21 21 21 21 21 22 23 24 25 27 28
Wind_Direction
133 130 133 134 128 126 129 126 125 125 108 97 120 121 105 109 112 117 148 164 83 102 30 2 336 2 7 322 310 317 321 332 345 347 335 320 325 342 346 329 312 318 336 340 335 330 323 313 309 313 315 313 310 308 308 305 299 300 304 306 303 305 307 295 285 290 293 288 286 287 288 289 292 295 293 289 289 284 277 274 274 272 271 269 269
135 135 128 118 118 127 131 130 133 128 116 113 126 118 98 111 108 98 107 11 32 63 51 23 347 341 334 322 336 336 335 348 347 339 336 333 341 347 332 319 319 330 336 332 328 320 311 310 314 318 317 311 308 311 313 311 308 306 308 310 304 298 299 300 297 292 287 285 286 286 286 286 288 290 285 280 283 286 285 285 284 281 279 275 270
136 131 121 122 140 151 145 145 140 126 114 115 125 124 117 117 101 76 66 50 48 46 41 4 319 322 336 341 347 337 334 343 339 335 336 334 340 343 337 336 338 338 335 329 326 319 312 315 322 324 318 311 312 315 316 315 311 306 303 305 307 303 299 298 301 298 292 288 286 284 285 286 286 283 280 278 280 285 290 293 293 290 287 284 279
134 128 131 145 160 158 146 144 134 118 112 139 136 134 118 104 90 70 67 70 65 10 325 323 321 333 341 326 327 335 332 331 332 333 334 334 343 346 342 341 341 340 335 329 325 321 319 321 324 322 315 313 315 316 316 312 304 305 310 309 308 312 309 302 302 305 306 305 300 288 281 280 281 281 280 279 277 282 289 289 290 292 292 291 287
136 138 146 151 147 143 144 143 131 110 102 133 144 135 97 95 99 77 41 17 23 321 322 327 325 333 335 329 334 334 328 332 332 324 327 333 339 340 335 330 331 335 331 325 324 323 322 322 322 318 313 314 316 314 311 304 295 300 315 313 302 305 309 304 301 302 302 303 302 294 286 284 285 284 282 282 283 285 287 285 286 290 291 292 289
144 148 149 144 139 137 139 135 123 110 108 129 155 144 126 145 150 109 346 338 331 310 318 324 329 334 339 344 340 327 337 347 326 315 329 333 332 335 335 329 328 333 330 324 323 324 323 319 315 315 315 315 314 312 310 306 298 293 299 305 300 297 297 296 299 301 298 297 297 296 294 292 291 289 284 285 288 288 285 283 281 282 282 282 282
145 142 139 140 135 126 126 126 125 137 149 158 166 155 177 240 305 301 295 306 307 312 317 322 333 339 342 342 328 330 353 348 309 319 330 327 327 332 335 337 334 329 324 321 321 319 316 314 315 318 318 315 310 308 308 309 305 297 293 294 294 291 289 289 292 293 292 293 295 296 294 289 287 286 283 283 287 286 284 285 282 278 275 273 275
135 135 138 137 129 125 135 144 154 172 179 179 180 178 247 289 319 313 314 318 315 316 320 326 335 340 337 324 317 343 7 331 307 320 325 325 330 331 333 338 334 324 319 319 317 312 307 310 316 317 314 311 308 307 308 307 305 304 301 299 297 295 295 294 294 295 295 297 298 297 295 291 289 289 288 288 289 286 284 287 289 286 281 274 271
135 140 142 137 136 147 161 168 177 188 191 207 231 291 315 315 319 319 321 323 322 323 325 332 335 331 319 319 332 11 11 314 306 319 322 327 330 327 329 335 334 328 323 319 316 314 312 311 311 309 306 307 307 306 306 304 303 304 304 302 301 301 301 301 300 301 300 301 302 300 297 294 292 292 291 291 292 290 288 291 293 291 287 282 274
141 146 147 146 157 168 172 182 203 215 226 278 291 299 308 307 314 322 323 325 330 327 324 331 339 349 356 349 359 14 349 306 310 321 320 321 322 322 327 331 333 333 330 331 331 325 319 314 311 310 307 305 304 305 304 302 300 300 298 298 300 301 301 300 299 299 299 300 301 300 298 294 291 290 289 288 289 291 292 292 291 288 286 284 279
143 149 156 164 176 180 184 206 239 262 275 289 291 303 317 318 318 323 324 326 329 324 323 335 1 12 360 347 351 353 328 310 316 319 317 318 319 322 327 329 332 338 339 335 328 319 314 312 311 311 307 305 305 305 305 303 301 298 296 296 298 297 295 294 296 298 297 295 294 293 291 290 290 290 287 286 287 289 287 283 283 283 282 281 281
149 159 171 180 185 190 209 238 265 279 285 296 301 311 321 320 319 320 319 323 325 325 345 26 39 8 336 322 331 332 314 311 316 315 316 318 319 322 327 329 333 342 341 329 318 314 314 313 312 309 306 306 306 305 304 303 300 298 295 293 292 290 288 288 291 293 291 289 289 288 287 288 290 289 286 286 287 284 280 280 282 283 281 280 281
159 169 182 191 196 212 234 252 271 274 277 294 303 309 312 314 314 309 312 324 326 336 54 56 15 325 318 320 326 319 308 310 313 312 315 318 320 324 328 330 336 339 333 323 318 316 311 307 306 306 306 308 307 305 303 301 298 296 295 295 293 292 291 289 289 289 286 285 285 285 286 288 288 287 286 287 286 282 281 284 284 281 278 277 278
169 180 193 199 206 230 248 258 273 277 280 290 299 307 312 317 318 314 321 333 335 52 70 44 340 322 323 322 325 318 310 309 310 311 315 320 324 328 329 331 333 328 320 314 309 305 303 306 309 310 311 311 307 303 300 298 298 298 298 298 297 296 294 293 293 292 288 283 280 280 281 283 282 281 282 284 284 282 282 282 284 284 281 280 279
176 192 205 208 221 242 252 261 273 279 283 290 301 312 320 322 324 333 348 4 56 77 56 360 334 322 306 305 318 315 306 305 309 314 318 324 327 329 329 330 328 322 316 311 306 305 308 312 311 307 306 305 301 299 300 301 301 301 300 299 298 298 297 297 298 297 293 287 282 280 281 280 277 275 276 278 279 280 280 280 282 286 287 287 285
181 200 214 219 238 252 256 267 276 280 286 295 306 316 322 317 320 347 20 50 64 62 347 312 319 313 309 312 310 301 301 307 314 317 319 324 328 330 331 332 329 326 323 320 319 320 319 315 309 305 304 303 302 303 304 303 301 300 300 299 299 299 300 300 300 298 294 289 285 285 284 281 277 275 275 276 275 276 278 279 279 280 283 286 287
186 209 225 231 248 258 260 265 273 280 288 298 306 309 311 306 318 357 31 42 31 18 347 335 324 317 325 320 298 299 308 314 316 314 317 325 333 333 332 332 330 329 328 329 330 330 328 325 321 318 314 309 306 305 302 301 301 301 301 301 302 302 302 302 301 299 294 290 289 291 290 285 281 279 278 276 275 275 276 276 275 276 279 282 283
192 217 235 244 251 258 264 267 274 283 288 295 301 306 314 330 357 22 47 32 11 8 22 355 314 304 311 306 303 314 317 312 311 314 321 332 339 337 333 333 334 333 332 332 333 333 334 335 328 321 316 308 302 301 301 301 302 303 304 305 305 305 307 307 306 305 303 298 295 294 292 288 286 283 281 279 277 277 276 274 271 270 272 274 277
198 220 240 256 254 257 267 273 279 287 288 293 308 326 360 31 40 41 40 28 358 332 324 307 300 299 300 302 313 327 316 309 313 320 329 335 338 340 339 337 336 334 332 332 332 333 338 339 324 305 301 298 297 298 301 302 304 305 307 308 308 310 312 313 313 316 315 311 307 303 300 300 300 297 294 289 283 281 281 278 271 266 267 269 270
211 230 243 255 259 266 276 280 282 287 284 294 349 58 71 46 34 31 12 334 283 279 291 299 303 307 309 315 326 325 318 317 319 324 331 334 336 341 344 342 339 334 330 331 332 334 338 340 331 313 305 307 308 306 303 302 303 306 309 312 314 318 321 322 326 328 324 319 318 317 317 321 322 318 316 309 295 288 289 286 271 263 266 268 268
212 231 239 241 259 272 278 278 278 264 163 120 60 81 94 58 18 353 318 302 296 304 309 312 320 324 326 334 331 323 326 323 318 325 331 332 332 336 340 342 340 333 328 329 331 333 334 334 334 332 327 325 324 317 310 306 305 308 316 321 322 325 328 331 335 337 335 334 335 335 336 335 331 329 329 326 316 304 298 293 281 271 270 271 273
189 207 225 229 240 246 236 226 61 88 99 91 61 52 89 117 292 286 296 315 328 327 322 329 341 337 336 339 333 330 332 326 321 328 332 329 328 331 334 336 335 331 326 326 328 329 330 330 331 331 328 327 326 321 316 315 315 317 326 332 329 327 330 332 334 335 337 339 338 335 337 337 332 329 330 330 327 317 303 295 288 281 277 275 274
198 199 205 196 178 154 105 85 91 105 109 114 113 74 65 267 307 312 328 353 355 353 353 354 350 346 344 343 340 339 335 329 328 330 329 324 324 327 328 328 328 327 323 323 325 326 327 328 329 329 329 330 328 322 319 323 324 326 333 336 333 328 325 324 325 327 329 330 329 327 330 330 326 325 325 324 320 312 302 293 286 281 277 275 274
179 152 152 140 118 109 108 104 112 124 120 136 164 40 18 4 349 1 30 33 7 11 16 5 354 353 348 343 339 333 326 329 331 326 320 317 319 320 321 322 323 323 321 322 324 325 327 330 332 335 338 340 338 334 332 334 335 335 335 333 327 321 317 316 319 321 320 321 322 323 324 324 321 319 320 317 310 306 302 297 292 287 283 282 283
129 129 136 130 111 106 131 122 102 106 104 80 44 39 42 49 24 28 42 39 6 13 13 358 354 352 341 333 326 320 323 332 329 317 313 313 314 316 319 322 324 325 324 324 326 328 334 338 343 349 352 351 349 346 343 342 342 339 337 334 327 322 321 321 320 317 315 315 315 313 313 315 314 311 311 310 306 304 302 301 299 296 291 287 287
131 128 123 119 100 89 130 118 72 82 83 52 58 75 75 54 28 33 48 41 357 7 2 354 354 340 328 324 320 322 332 337 324 314 316 318 318 321 325 327 328 327 329 332 335 341 349 353 355 358 357 353 351 349 345 344 341 338 336 335 331 329 328 325 321 317 315 314 313 312 310 308 305 303 303 305 305 302 302 302 301 298 296 295 293
136 119 115 122 115 124 152 143 96 98 100 75 76 93 91 76 58 50 58 308 331 347 0 359 348 333 329 330 329 333 340 334 324 323 327 326 327 330 330 330 332 336 345 350 353 358 0 358 357 359 357 356 356 352 347 344 342 339 338 334 330 328 326 322 319 316 314 313 312 313 312 310 307 305 305 305 304 301 301 302 301 300 300 299 298
124 121 128 143 146 145 146 129 96 98 133 174 146 133 116 101 90 342 340 351 349 354 10 2 345 341 345 343 339 341 342 335 332 334 335 333 333 333 333 338 347 356 2 1 360 1 359 357 359 1 359 358 356 350 343 340 340 340 336 329 324 323 320 319 319 316 315 316 317 317 316 314 312 310 308 305 303 300 297 296 296 297 298 298 296
135 138 138 135 129 129 130 121 103 84 10 339 9 34 45 72 49 4 5 13 10 11 16 7 356 357 359 351 347 347 344 340 339 339 337 336 337 339 348 360 4 3 360 355 353 355 357 359 1 358 353 350 347 342 338 335 334 333 329 322 321 321 319 319 319 318 319 320 319 320 320 317 314 313 311 307 305 304 300 296 294 294 295 295 295
141 131 129 125 119 117 121 128 137 133 108 46 34 40 40 45 35 14 11 16 18 17 17 14 9 7 4 358 354 351 347 343 343 342 343 346 353 2 11 11 1 350 343 342 346 353 358 360 357 349 343 342 341 339 337 336 335 334 332 329 328 328 325 322 320 319 319 319 317 318 319 317 316 315 312 309 307 304 302 301 299 297 297 294 292
146 142 150 146 132 119 108 105 126 147 150 132 78 53 26 13 12 11 11 13 13 11 11 12 10 6 4 2 359 355 352 349 348 351 357 7 16 19 15 6 359 351 341 341 350 359 360 355 348 343 342 343 343 342 341 341 340 339 336 333 331 330 329 327 324 322 321 320 318 319 321 320 319 316 312 309 307 304 301 301 301 300 300 296 291
159 161 176 169 159 147 128 118 111 100 98 90 78 68 39 7 5 7 7 7 6 6 7 7 3 360 0 360 357 355 354 354 356 5 14 20 20 15 7 3 1 357 351 352 358 1 356 349 346 346 347 346 346 345 344 343 342 340 337 334 330 329 329 328 327 324 322 320 320 321 320 318 314 311 310 309 310 309 307 306 304 302 300 297 295
175 176 171 162 162 153 118 113 108 100 105 99 76 62 41 23 20 9 0 360 1 3 5 1 357 357 356 353 353 354 355 358 6 12 17 18 13 8 4 3 2 2 3 3 0 357 354 352 351 351 350 349 348 346 344 344 343 341 338 336 333 331 329 325 323 321 319 317 316 316 315 311 306 304 304 305 306 308 306 305 305 306 307 305 302
178 158 118 112 119 112 103 104 102 103 115 104 81 59 34 31 30 13 4 3 360 1 2 357 355 355 351 346 349 352 356 6 13 12 14 14 7 0 359 2 5 6 6 3 359 357 357 357 356 355 355 354 350 346 344 344 345 344 343 340 336 333 330 326 323 322 320 318 316 315 314 311 306 304 302 300 300 299 297 295 294 297 304 313 315
136 127 120 115 110 107 112 110 93 92 98 84 67 53 39 33 24 12 10 6 359 1 3 356 355 353 345 342 346 351 1 16 17 12 12 11 1 355 359 5 5 3 3 2 360 359 359 358 357 357 356 353 350 347 344 343 345 347 347 345 341 337 335 334 332 329 325 322 321 320 317 314 310 309 307 304 301 298 296 295 291 288 289 296 310
108 111 116 111 94 84 85 79 67 73 85 74 56 50 46 30 16 16 13 1 358 3 1 358 357 350 338 340 346 352 11 24 21 13 10 4 356 356 5 7 2 0 1 360 358 357 356 355 353 352 351 350 350 349 346 343 344 345 346 347 345 341 338 335 331 328 326 324 324 324 323 320 318 317 314 309 306 303 301 302 302 298 291 285 287
108 107 109 99 74 59 60 64 59 58 64 60 46 42 41 24 14 18 12 1 2 3 359 0 359 341 332 343 354 8 31 31 23 14 6 359 356 3 12 8 1 0 360 357 356 357 356 355 353 351 349 349 348 347 345 344 344 345 346 347 347 342 338 334 332 333 333 334 334 337 337 334 332 329 322 315 310 307 307 310 313 312 305 290 276
134 123 122 111 78 49 44 52 49 47 54 53 37 31 32 23 18 19 12 4 4 2 359 1 355 335 334 348 2 21 33 26 19 10 360 355 358 6 11 6 0 0 2 360 358 359 359 358 356 353 351 350 349 347 345 343 342 343 346 347 347 346 344 343 345 348 350 350 352 354 351 346 342 338 330 322 318 313 311 315 315 311 311 307 279
127 108 115 114 101 80 67 70 61 50 50 51 42 34 26 19 21 21 14 9 7 2 2 1 350 337 340 351 7 25 28 22 16 4 355 355 359 5 10 6 358 359 6 5 1 2 2 359 357 356 354 352 351 349 345 342 342 344 347 349 351 352 352 353 357 1 4 5 5 3 359 357 355 352 348 341 335 328 318 314 315 312 314 317 292
96 85 99 115 112 97 96 100 75 48 46 53 49 38 25 21 24 20 13 11 7 3 4 1 349 340 345 355 12 28 26 18 10 357 353 359 8 10 12 6 356 0 10 6 358 1 2 358 356 357 356 354 353 349 345 345 347 349 351 352 353 355 357 1 7 10 12 13 12 9 9 8 5 1 359 355 350 347 340 331 330 328 323 325 315
87 67 73 89 92 90 106 111 33 22 44 61 46 28 30 33 25 16 13 11 6 7 10 1 349 346 350 359 16 30 27 15 1 351 353 8 17 14 12 5 359 6 13 4 357 1 2 358 357 358 356 355 354 349 346 349 353 354 354 356 357 359 4 9 14 17 18 18 16 15 15 12 9 6 4 0 358 360 2 360 357 357 357 357 359
101 52 52 58 61 76 105 96 14 26 55 61 20 16 42 52 30 16 15 8 4 12 15 1 353 355 356 360 15 28 26 11 357 357 7 23 20 14 12 7 6 13 14 4 359 1 360 358 360 359 355 355 355 352 351 354 356 356 357 358 359 3 9 14 14 17 21 21 20 21 19 17 18 19 17 13 11 12 17 22 18 14 21 30 50
117 93 77 67 73 98 103 77 52 56 62 51 31 35 49 50 30 18 18 10 8 16 15 3 0 3 1 2 14 22 18 4 357 5 21 36 27 19 20 20 18 19 14 5 3 1 360 1 3 359 355 355 357 356 356 357 358 358 358 360 2 8 15 15 13 13 18 21 24 25 23 23 25 24 23 25 28 31 37 43 40 33 32 37 50
127 119 110 100 111 126 106 90 108 93 33 32 40 50 50 42 27 24 23 16 14 19 16 8 7 9 8 11 17 19 14 6 4 10 23 39 37 31 29 27 26 24 16 9 7 5 5 7 4 357 356 360 5 4 2 1 1 1 1 3 8 14 16 14 12 11 12 18 25 25 23 24 25 23 25 33 41 44 46 47 45 43 47 58 73
131 130 117 100 97 100 76 74 94 72 26 27 39 51 45 32 24 26 23 20 21 23 19 15 14 13 13 18 21 18 12 6 6 13 25 36 39 35 28 25 28 29 22 13 9 9 10 10 4 360 2 9 14 11 8 7 6 7 10 14 17 17 14 12 13 12 11 16 25 26 23 20 20 25 36 45 51 57 65 68 70 74 81 90 98
126 127 121 114 111 106 80 66 66 63 55 57 65 64 39 24 27 24 15 18 26 27 23 20 18 16 17 22 23 20 13 7 9 18 25 30 34 35 29 26 29 31 26 17 13 13 14 10 5 5 13 22 21 16 15 17 16 17 20 23 22 18 13 10 10 12 15 21 26 28 28 28 33 45 57 61 61 66 72 73 75 78 80 85 93
129 123 118 125 136 130 98 79 75 87 92 78 69 68 48 35 39 34 19 19 25 27 27 27 22 17 20 26 26 22 16 10 10 16 22 27 32 34 31 28 30 32 31 26 21 20 18 11 6 11 23 31 27 21 22 25 25 24 24 25 25 21 16 13 12 15 25 31 31 31 38 48 55 63 69 70 70 72 72 72 77 82 84 88 93
140 124 117 126 134 116 95 73 66 88 104 80 63 67 67 49 43 43 35 26 25 27 29 30 26 22 22 26 27 24 20 15 10 9 14 22 30 32 31 30 30 33 35 33 28 25 21 12 9 15 26 32 31 27 27 29 30 30 29 27 27 25 21 20 23 35 47 49 43 43 54 65 70 74 78 78 78 79 78 78 83 88 91 93 96
135 123 119 125 123 117 114 106 88 90 100 87 66 67 72 61 52 51 42 30 28 33 33 31 31 28 23 27 31 25 19 21 19 9 7 20 32 33 32 33 32 34 37 36 31 26 22 14 13 19 26 31 33 31 27 28 31 33 33 31 31 30 30 31 37 53 65 67 63 59 61 66 71 77 83 86 87 88 88 88 90 92 95 97 98
127 118 114 118 129 140 140 128 112 99 97 93 78 70 71 68 60 55 47 38 35 37 35 34 38 35 28 30 34 26 17 24 25 11 6 24 37 36 32 33 35 36 38 36 30 26 23 18 17 22 27 30 32 31 26 23 27 31 34 36 37 38 39 41 43 48 58 67 72 75 74 74 75 80 84 86 87 88 90 93 95 96 97 97 99
133 136 129 121 124 130 125 115 109 101 97 95 90 85 85 80 67 58 54 49 45 43 40 38 42 43 38 35 33 29 27 31 26 13 13 30 39 36 33 34 37 39 39 34 28 26 25 21 20 24 28 31 33 32 27 21 20 24 30 36 40 42 45 47 48 48 50 55 64 72 75 77 81 87 90 91 90 89 89 92 95 98 99 101 102
Height
1528 1529 1530 1531 1532 1533 1534 1535 1536 1537 1538 1539 1540 1541 1541 1541 1541 1541 1540 1541 1541 1542 1542 1542 1542 1542 1542 1541 1540 1539 1539 1538 1538 1537 1537 1536 1535 1535 1535 1534 1534 1533 1533 1532 1532 1532 1532 1531 1530 1530 1530 1530 1530 1529 1529 1528 1528 1527 1527 1526 1525 1525 1525 1524 1523 1522 1522 1522 1522 1522 1521 1521 1520 1519 1518 1517 1517 1516 1515 1514 1513 1513 1513 1513 1514
1529 1530 1531 1532 1533 1534 1535 1536 1537 1538 1538 1540 1540 1541 1541 1541 1541 1541 1541 1542 1542 1543 1544 1543 1542 1542 1541 1541 1540 1540 1539 1538 1538 1537 1536 1535 1534 1534 1534 1533 1533 1532 1532 1532 1531 1531 1530 1528 1528 1528 1529 1528 1528 1527 1526 1526 1526 1525 1525 1525 1524 1524 1523 1523 1522 1520 1519 1519 1520 1519 1519 1519 1518 1517 1516 1515 1514 1514 1513 1512 1512 1511 1511 1511 1511
1530 1531 1532 1533 1534 1535 1536 1536 1537 1538 1539 1540 1541 1541 1541 1541 1542 1542 1542 1543 1543 1544 1543 1543 1542 1542 1541 1541 1540 1540 1539 1538 1537 1536 1535 1535 1534 1533 1533 1532 1532 1532 1531 1531 1530 1529 1528 1527 1527 1527 1527 1527 1526 1525 1525 1525 1525 1524 1523 1523 1522 1522 1522 1522 1520 1519 1518 1517 1517 1517 1517 1517 1516 1515 1514 1514 1513 1513 1512 1511 1511 1510 1509 1509 1508
1530 1532 1533 1534 1535 1535 1536 1537 1538 1538 1539 1540 1540 1541 1541 1542 1543 1543 1543 1544 1544 1543 1543 1542 1542 1541 1541 1541 1540 1539 1538 1537 1537 1536 1535 1534 1533 1533 1532 1531 1531 1531 1530 1530 1529 1528 1527 1526 1526 1526 1525 1525 1524 1524 1524 1523 1523 1522 1521 1520 1520 1520 1519 1518 1517 1516 1516 1515 1514 1514 1514 1514 1513 1512 1512 1512 1512 1512 1511 1510 1509 1509 1508 1507 1506
1531 1532 1533 1534 1535 1536 1537 1537 1538 1539 1540 1540 1540 1542 1543 1543 1544 1544 1544 1544 1544 1543 1543 1542 1542 1541 1540 1540 1539 1538 1537 1537 1536 1535 1534 1533 1533 1532 1531 1531 1530 1529 1529 1528 1528 1527 1526 1526 1525 1525 1524 1524 1523 1523 1522 1521 1520 1519 1519 1519 1518 1517 1516 1515 1514 1514 1513 1512 1511 1511 1511 1511 1511 1510 1510 1510 1510 1509 1508 1508 1507 1507 1506 1505 1504
1531 1532 1533 1534 1535 1536 1537 1538 1539 1540 1541 1541 1542 1543 1543 1544 1544 1545 1545 1545 1544 1543 1542 1542 1541 1540 1539 1539 1538 1538 1537 1536 1535 1534 1534 1534 1533 1532 1531 1530 1529 1528 1528 1527 1527 1526 1526 1525 1524 1524 1523 1523 1523 1522 1521 1520 1519 1518 1518 1517 1516 1515 1513 1513 1512 1511 1510 1509 1509 1509 1509 1509 1509 1508 1508 1508 1507 1507 1506 1505 1504 1504 1503 1502 1502
1531 1532 1533 1534 1535 1536 1537 1538 1539 1540 1541 1542 1542 1543 1544 1545 1546 1546 1545 1544 1544 1543 1542 1541 1541 1540 1539 1538 1538 1537 1537 1536 1535 1534 1534 1533 1532 1532 1530 1529 1528 1527 1527 1526 1526 1526 1525 1524 1524 1523 1523 1522 1522 1521 1520 1519 1518 1517 1516 1515 1514 1513 1512 1512 1511 1510 1509 1508 1508 1508 1507 1507 1507 1506 1506 1506 1505 1504 1503 1502 1501 1501 1501 1500 1499
1531 1533 1534 1535 1536 1537 1538 1539 1539 1540 1541 1542 1543 1544 1545 1546 1546 1546 1544 1544 1543 1543 1542 1541 1540 1540 1539 1538 1537 1537 1537 1536 1535 1534 1534 1533 1532 1531 1530 1529 1527 1526 1526 1525 1525 1525 1524 1523 1523 1522 1522 1521 1521 1520 1519 1518 1517 1515 1515 1514 1513 1512 1511 1510 1509 1508 1508 1507 1506 1506 1505 1505 1504 1504 1503 1503 1502 1501 1501 1500 1498 1498 1498 1497 1496
1532 1534 1535 1536 1537 1537 1538 1539 1539 1540 1541 1542 1543 1544 1545 1546 1546 1545 1544 1542 1542 1542 1541 1541 1540 1539 1538 1537 1537 1537 1537 1536 1535 1534 1533 1532 1531 1530 1529 1528 1526 1525 1524 1524 1524 1523 1523 1522 1522 1521 1521 1520 1520 1519 1518 1517 1516 1514 1513 1513 1512 1511 1510 1509 1508 1507 1506 1505 1504 1504 1503 1503 1502 1501 1501 1500 1499 1499 1498 1498 1496 1495 1495 1494 1493
1533 1534 1535 1536 1537 1537 1538 1538 1539 1540 1541 1542 1543 1544 1544 1544 1545 1544 1543 1542 1541 1541 1541 1540 1539 1538 1538 1537 1537 1537 1536 1535 1534 1533 1532 1531 1530 1529 1528 1527 1525 1524 1523 1523 1523 1523 1522 1522 1521 1520 1520 1519 1518 1517 1516 1515 1514 1513 1512 1511 1510 1509 1508 1507 1506 1505 1504 1503 1502 1502 1501 1500 1499 1499 1498 1497 1497 1496 1496 1495 1493 1492 1492 1491 1490
1533 1534 1535 1536 1537 1537 1538 1539 1539 1540 1541 1542 1542 1543 1543 1543 1543 1542 1541 1541 1541 1540 1540 1539 1538 1538 1538 1537 1537 1537 1536 1535 1534 1533 1532 1531 1530 1528 1527 1525 1524 1523 1522 1522 1522 1522 1521 1520 1520 1519 1518 1517 1516 1515 1514 1513 1512 1511 1511 1510 1509 1508 1506 1505 1504 1503 1502 1500 1500 1499 1498 1497 1497 1496 1495 1494 1494 1493 1493 1492 1490 1489 1489 1488 1487
1533 1534 1535 1536 1536 1537 1538 1539 1539 1540 1541 1541 1542 1542 1542 1542 1541 1540 1540 1540 1540 1539 1539 1538 1538 1539 1538 1537 1537 1536 1535 1534 1533 1532 1531 1530 1528 1527 1526 1524 1523 1522 1522 1522 1521 1521 1520 1519 1518 1517 1516 1515 1514 1513 1512 1511 1510 1509 1508 1507 1506 1505 1504 1503 1502 1500 1499 1497 1496 1496 1495 1494 1493 1493 1492 1491 1491 1490 1488 1488 1487 1486 1486 1485 1484
1533 1534 1535 1536 1536 1537 1538 1539 1539 1540 1541 1541 1542 1542 1541 1541 1540 1539 1539 1539 1539 1539 1538 1538 1538 1538 1538 1537 1537 1536 1534 1533 1532 1531 1530 1529 1527 1526 1525 1523 1522 1522 1521 1521 1520 1519 1518 1517 1516 1515 1514 1513 1512 1511 1509 1508 1507 1506 1505 1504 1503 1502 1501 1500 1499 1498 1496 1494 1493 1491 1491 1490 1489 1488 1488 1488 1487 1486 1484 1484 1483 1483 1482 1481 1481
1533 1534 1535 1536 1537 1537 1538 1538 1539 1540 1540 1541 1541 1541 1540 1540 1539 1539 1539 1539 1538 1538 1538 1538 1538 1538 1537 1537 1536 1535 1533 1532 1531 1530 1529 1528 1526 1525 1524 1522 1521 1521 1521 1520 1519 1518 1516 1515 1514 1512 1512 1511 1509 1507 1506 1505 1503 1502 1501 1500 1499 1498 1497 1496 1495 1494 1493 1491 1489 1487 1487 1487 1485 1484 1484 1484 1483 1482 1481 1480 1480 1479 1478 1478 1477
1534 1534 1535 1536 1537 1537 1538 1538 1539 1539 1539 1540 1540 1539 1539 1539 1539 1538 1538 1538 1537 1537 1538 1538 1538 1537 1536 1536 1536 1534 1532 1531 1530 1529 1528 1527 1525 1524 1523 1521 1520 1520 1519 1518 1517 1515 1514 1513 1512 1510 1509 1508 1506 1504 1503 1502 1500 1499 1498 1496 1495 1494 1493 1492 1491 1489 1488 1486 1485 1483 1482 1482 1481 1480 1480 1479 1479 1478 1478 1477 1476 1476 1475 1474 1473
1534 1534 1535 1536 1537 1537 1538 1538 1538 1538 1538 1538 1538 1537 1537 1537 1538 1538 1537 1537 1537 1537 1537 1538 1537 1536 1535 1535 1535 1533 1531 1531 1530 1529 1527 1526 1525 1523 1521 1520 1519 1517 1516 1515 1514 1513 1512 1511 1509 1508 1507 1505 1503 1502 1501 1499 1497 1496 1494 1492 1491 1489 1488 1488 1487 1485 1483 1481 1480 1479 1477 1476 1476 1475 1475 1475 1474 1474 1473 1473 1472 1472 1472 1471 1470
1534 1534 1535 1536 1536 1537 1537 1537 1537 1537 1537 1537 1536 1536 1536 1536 1537 1537 1536 1537 1537 1537 1537 1537 1536 1535 1535 1534 1534 1532 1531 1530 1529 1528 1527 1525 1524 1522 1520 1518 1517 1516 1514 1513 1512 1511 1510 1508 1507 1505 1504 1503 1501 1499 1498 1496 1494 1493 1490 1489 1487 1485 1484 1483 1482 1480 1479 1477 1475 1474 1473 1472 1471 1470 1470 1470 1469 1469 1469 1467 1467 1469 1469 1468 1467
1534 1534 1535 1536 1536 1536 1536 1536 1536 1536 1536 1536 1536 1536 1536 1536 1536 1536 1536 1537 1537 1536 1536 1536 1535 1535 1534 1533 1533 1532 1531 1529 1529 1528 1526 1524 1523 1520 1519 1517 1515 1514 1512 1511 1510 1509 1507 1506 1505 1503 1502 1501 1499 1497 1495 1493 1491 1489 1487 1485 1483 1481 1480 1479 1477 1476 1474 1473 1472 1470 1469 1468 1467 1466 1466 1465 1465 1465 1464 1463 1464 1465 1466 1465 1465
1534 1534 1535 1535 1535 1535 1535 1535 1535 1535 1535 1535 1536 1536 1536 1536 1536 1536 1537 1537 1537 1536 1535 1535 1535 1534 1533 1533 1532 1532 1531 1529 1528 1527 1525 1523 1522 1520 1518 1516 1514 1512 1511 1509 1508 1507 1505 1504 1503 1501 1500 1498 1496 1495 1493 1491 1489 1487 1485 1483 1480 1479 1477 1476 1474 1472 1471 1469 1468 1467 1465 1465 1464 1463 1462 1462 1461 1461 1461 1460 1461 1462 1462 1463 1463
1534 1534 1535 1535 1535 1534 1534 1534 1534 1534 1535 1535 1536 1536 1536 1536 1537 1536 1536 1536 1536 1535 1535 1535 1534 1533 1533 1532 1531 1531 1530 1529 1527 1526 1524 1523 1521 1519 1517 1515 1513 1511 1509 1508 1506 1505 1503 1502 1501 1499 1498 1496 1495 1493 1491 1490 1487 1485 1483 1481 1478 1477 1475 1473 1472 1470 1468 1466 1465 1464 1463 1462 1462 1461 1460 1459 1458 1458 1458 1458 1459 1459 1460 1460 1461
1533 1534 1534 1534 1534 1534 1534 1534 1534 1534 1535 1535 1536 1536 1536 1537 1537 1536 1536 1536 1535 1535 1535 1534 1534 1533 1532 1532 1531 1531 1530 1528 1527 1525 1524 1522 1520 1518 1516 1514 1512 1510 1508 1506 1505 1503 1502 1500 1499 1497 1496 1494 1492 1490 1488 1487 1485 1483 1481 1479 1477 1476 1474 1472 1471 1469 1467 1465 1464 1463 1462 1461 1461 1460 1459 1457 1456 1456 1456 1457 1457 1457 1458 1458 1458
1533 1533 1533 1534 1534 1534 1534 1534 1534 1535 1536 1536 1536 1536 1536 1537 1536 1536 1536 1535 1535 1535 1535 1534 1534 1533 1532 1532 1531 1530 1529 1528 1527 1525 1523 1521 1519 1517 1515 1513 1512 1509 1507 1505 1503 1502 1500 1498 1496 1495 1493 1491 1490 1488 1486 1485 1483 1482 1480 1478 1477 1475 1473 1472 1470 1468 1467 1465 1464 1463 1462 1461 1460 1459 1458 1457 1456 1456 1456 1456 1456 1456 1456 1456 1456
1532 1532 1533 1533 1534 1534 1535 1535 1535 1536 1536 1536 1537 1537 1536 1536 1536 1535 1535 1535 1535 1535 1534 1534 1534 1533 1532 1532 1531 1530 1529 1528 1526 1524 1522 1520 1518 1516 1514 1513 1511 1509 1506 1504 1502 1500 1498 1496 1494 1492 1490 1489 1487 1486 1485 1483 1482 1481 1479 1477 1476 1474 1473 1471 1469 1468 1466 1465 1463 1462 1461 1460 1459 1458 1457 1456 1456 1455 1455 1455 1455 1455 1454 1454 1454
1531 1532 1533 1533 1534 1535 1535 1536 1536 1536 1536 1537 1537 1536 1536 1536 1536 1536 1535 1535 1535 1535 1535 1534 1534 1533 1532 1532 1531 1530 1528 1527 1526 1523 1521 1519 1517 1515 1514 1512 1510 1507 1505 1503 1501 1499 1496 1494 1492 1490 1488 1487 1485 1484 1483 1482 1481 1479 1477 1476 1474 1473 1472 1470 1468 1467 1465 1463 1462 1461 1460 1459 1458 1457 1456 1456 1455 1455 1454 1454 1453 1453 1453 1452 1452
1531 1532 1533 1534 1534 1535 1535 1536 1536 1536 1537 1537 1536 1536 1536 1536 1536 1536 1536 1536 1536 1536 1535 1535 1534 1533 1532 1531 1530 1529 1527 1526 1525 1522 1520 1519 1517 1515 1512 1510 1508 1506 1504 1502 1499 1497 1495 1493 1491 1489 1487 1486 1484 1483 1481 1480 1478 1477 1475 1474 1473 1472 1470 1468 1466 1465 1463 1462 1461 1460 1459 1458 1457 1456 1455 1455 1454 1453 1452 1452 1451 1451 1451 1450 1449
1531 1532 1533 1534 1535 1535 1535 1535 1536 1536 1536 1537 1536 1537 1537 1537 1537 1537 1536 1536 1536 1535 1535 1534 1534 1532 1531 1530 1529 1527 1526 1525 1523 1521 1520 1518 1515 1513 1511 1508 1506 1504 1502 1500 1498 1496 1494 1492 1490 1488 1487 1485 1483 1481 1480 1478 1477 1475 1474 1473 1471 1470 1468 1467 1465 1463 1462 1460 1459 1458 1457 1456 1456 1454 1454 1453 1452 1451 1450 1450 1449 1449 1448 1448 1447
1531 1532 1533 1534 1535 1536 1536 1536 1536 1536 1537 1537 1537 1537 1537 1537 1537 1536 1536 1536 1535 1535 1534 1534 1532 1531 1530 1529 1528 1526 1525 1524 1521 1519 1518 1515 1513 1511 1508 1506 1504 1502 1500 1498 1496 1494 1493 1491 1489 1488 1486 1484 1482 1480 1479 1477 1476 1475 1473 1472 1471 1469 1468 1466 1464 1462 1460 1459 1457 1456 1455 1454 1453 1452 1451 1450 1450 1449 1449 1448 1447 1446 1446 1446 1445
1532 1533 1534 1535 1536 1536 1536 1537 1537 1537 1537 1537 1537 1537 1536 1536 1536 1536 1536 1536 1534 1534 1534 1533 1532 1531 1529 1528 1527 1525 1524 1522 1520 1518 1516 1513 1511 1509 1507 1505 1503 1501 1499 1498 1495 1494 1492 1490 1488 1486 1484 1482 1481 1479 1478 1477 1475 1474 1473 1471 1470 1468 1466 1464 1463 1461 1459 1457 1455 1454 1453 1452 1450 1449 1449 1447 1447 1446 1446 1446 1445 1444 1444 1443 1442
1533 1534 1535 1535 1536 1536 1537 1537 1537 1537 1536 1536 1537 1536 1536 1536 1536 1536 1536 1535 1534 1534 1533 1532 1532 1530 1529 1528 1526 1524 1523 1521 1519 1517 1515 1512 1510 1508 1506 1504 1503 1501 1499 1497 1495 1493 1491 1489 1487 1485 1483 1482 1480 1479 1477 1476 1474 1473 1472 1470 1468 1466 1464 1463 1461 1459 1457 1455 1454 1452 1451 1449 1448 1447 1446 1445 1444 1444 1443 1443 1442 1442 1441 1441 1440
1534 1534 1534 1535 1536 1536 1536 1536 1536 1536 1536 1536 1536 1536 1536 1537 1537 1536 1536 1535 1534 1534 1533 1533 1532 1531 1529 1528 1526 1524 1523 1521 1519 1517 1515 1513 1510 1508 1506 1505 1503 1501 1499 1497 1495 1493 1491 1488 1487 1486 1484 1482 1480 1479 1477 1475 1473 1472 1470 1468 1466 1464 1462 1461 1459 1457 1455 1453 1452 1450 1448 1447 1446 1445 1444 1443 1442 1441 1441 1440 1440 1439 1439 1438 1438
1533 1533 1533 1534 1535 1535 1535 1535 1535 1536 1536 1536 1536 1536 1536 1536 1536 1536 1536 1535 1534 1534 1533 1533 1532 1531 1529 1528 1526 1525 1523 1521 1519 1517 1515 1513 1511 1509 1507 1506 1504 1501 1499 1497 1495 1494 1491 1490 1489 1487 1485 1483 1481 1479 1476 1474 1472 1471 1468 1466 1464 1462 1460 1458 1456 1454 1453 1451 1449 1448 1446 1445 1443 1442 1441 1440 1439 1439 1438 1438 1437 1437 1436 1436 1436
1531 1532 1533 1534 1534 1534 1535 1535 1535 1535 1536 1536 1536 1536 1536 1536 1536 1536 1536 1535 1535 1534 1533 1532 1531 1530 1529 1527 1526 1524 1523 1521 1519 1517 1515 1513 1511 1509 1508 1506 1503 1502 1500 1497 1496 1494 1493 1491 1490 1487 1485 1483 1481 1478 1476 1474 1472 1470 1467 1465 1463 1460 1458 1456 1454 1452 1451 1448 1447 1445 1444 1442 1441 1440 1439 1438 1437 1436 1435 1435 1435 1434 1434 1433 1433
1531 1532 1532 1533 1533 1534 1534 1534 1535 1535 1535 1536 1536 1537 1537 1536 1536 1536 1536 1535 1535 1534 1533 1532 1531 1530 1529 1527 1525 1524 1522 1520 1519 1517 1515 1513 1512 1510 1508 1506 1504 1502 1500 1499 1497 1496 1494 1492 1490 1488 1486 1483 1481 1478 1476 1474 1471 1469 1466 1464 1461 1458 1456 1454 1452 1450 1448 1446 1444 1443 1441 1440 1439 1437 1436 1435 1434 1433 1433 1432 1432 1431 1431 1430 1430
1532 1532 1532 1533 1533 1534 1534 1534 1534 1535 1535 1536 1536 1536 1536 1536 1536 1536 1536 1535 1535 1534 1533 1533 1532 1530 1529 1527 1526 1524 1522 1520 1519 1517 1516 1514 1512 1510 1508 1506 1504 1503 1502 1500 1498 1497 1495 1493 1491 1489 1486 1484 1481 1478 1476 1473 1471 1468 1465 1462 1460 1457 1454 1451 1449 1447 1445 1443 1442 1440 1439 1437 1436 1434 1433 1432 1431 1430 1430 1429 1429 1429 1428 1428 1428
1531 1532 1533 1533 1533 1534 1534 1534 1534 1534 1535 1535 1535 1536 1536 1536 1536 1536 1536 1535 1535 1535 1534 1533 1532 1531 1529 1527 1526 1524 1522 1521 1519 1518 1516 1514 1512 1510 1508 1507 1505 1504 1502 1501 1500 1498 1496 1494 1492 1489 1487 1484 1481 1478 1475 1472 1469 1467 1464 1461 1457 1454 1451 1449 1447 1445 1443 1441 1439 1438 1436 1434 1433 1431 1430 1429 1428 1427 1426 1426 1426 1426 1426 1426 1426
1531 1532 1532 1533 1533 1534 1534 1534 1534 1534 1535 1535 1536 1536 1536 1536 1536 1536 1536 1536 1535 1535 1534 1534 1533 1531 1529 1528 1526 1524 1523 1522 1520 1519 1517 1515 1513 1511 1509 1508 1506 1505 1503 1502 1500 1498 1496 1494 1492 1489 1486 1483 1480 1477 1474 1471 1468 1466 1463 1459 1456 1453 1450 1447 1445 1443 1441 1439 1437 1435 1433 1431 1430 1429 1427 1426 1425 1424 1423 1423 1423 1423 1423 1424 1424
1532 1532 1532 1533 1533 1534 1534 1535 1535 1535 1535 1535 1536 1536 1536 1537 1536 1536 1536 1536 1535 1535 1535 1534 1533 1531 1530 1528 1527 1525 1523 1522 1521 1520 1519 1516 1514 1512 1510 1509 1507 1506 1504 1503 1501 1498 1496 1494 1492 1489 1486 1483 1480 1477 1473 1470 1468 1465 1462 1458 1455 1451 1449 1446 1444 1442 1439 1437 1435 1433 1431 1430 1428 1427 1425 1424 1423 1422 1421 1421 1421 1420 1421 1421 1422
1532 1532 1533 1533 1533 1534 1535 1535 1536 1536 1536 1536 1537 1537 1537 1537 1536 1536 1536 1536 1535 1535 1535 1534 1533 1532 1530 1529 1527 1525 1523 1522 1521 1521 1519 1517 1515 1513 1512 1510 1509 1507 1505 1504 1501 1499 1497 1495 1492 1489 1486 1483 1480 1477 1473 1470 1467 1464 1461 1457 1453 1450 1447 1445 1443 1440 1438 1436 1434 1432 1430 1428 1427 1425 1424 1422 1421 1420 1420 1419 1419 1419 1419 1419 1419
1532 1532 1533 1533 1534 1535 1536 1537 1537 1537 1537 1537 1537 1537 1537 1537 1537 1536 1536 1536 1536 1535 1535 1534 1533 1532 1530 1529 1528 1525 1523 1522 1522 1521 1519 1517 1516 1514 1512 1511 1510 1508 1506 1504 1502 1500 1498 1495 1493 1490 1487 1484 1480 1477 1473 1470 1467 1463 1459 1456 1452 1448 1446 1444 1442 1439 1437 1436 1434 1432 1430 1428 1426 1424 1423 1421 1420 1419 1418 1418 1417 1417 1417 1417 1417
1532 1533 1533 1533 1534 1536 1537 1537 1537 1537 1537 1537 1537 1537 1537 1537 1537 1537 1537 1537 1536 1536 1535 1535 1534 1532 1531 1530 1528 1526 1524 1523 1523 1522 1520 1518 1517 1515 1513 1512 1511 1508 1506 1505 1503 1501 1499 1496 1493 1491 1488 1484 1481 1477 1473 1469 1466 1462 1458 1454 1450 1447 1445 1443 1441 1439 1437 1435 1434 1432 1430 1428 1426 1424 1422 1421 1419 1418 1417 1417 1416 1416 1416 1416 1416
1533 1534 1534 1534 1535 1536 1537 1538 1537 1537 1537 1538 1538 1537 1537 1537 1537 1537 1537 1537 1536 1536 1536 1535 1534 1533 1532 1531 1529 1527 1526 1525 1524 1523 1521 1519 1518 1516 1515 1514 1512 1509 1508 1506 1504 1502 1500 1497 1494 1491 1488 1484 1480 1476 1472 1469 1465 1460 1457 1453 1449 1447 1445 1443 1441 1439 1437 1436 1434 1432 1431 1428 1426 1424 1422 1420 1419 1418 1417 1416 1416 1415 1415 1415 1415
1534 1534 1535 1535 1536 1537 1538 1538 1538 1538 1538 1538 1538 1537 1537 1537 1538 1538 1537 1537 1537 1536 1536 1536 1534 1533 1532 1531 1529 1528 1527 1526 1525 1523 1521 1520 1519 1517 1517 1515 1512 1510 1509 1507 1505 1503 1501 1498 1495 1492 1488 1484 1480 1476 1472 1468 1464 1459 1455 1452 1448 1446 1444 1442 1441 1439 1438 1436 1435 1433 1431 1429 1427 1425 1422 1420 1419 1418 1417 1417 1416 1416 1415 1416 1416
1535 1535 1536 1537 1537 1538 1538 1539 1538 1538 1538 1538 1538 1538 1538 1538 1538 1538 1538 1537 1537 1536 1536 1536 1535 1534 1532 1531 1530 1529 1528 1527 1526 1524 1522 1521 1520 1519 1518 1516 1513 1511 1510 1508 1506 1504 1502 1499 1497 1493 1489 1485 1481 1477 1473 1468 1463 1459 1455 1451 1448 1446 1444 1442 1441 1440 1438 1437 1436 1434 1432 1430 1428 1426 1424 1422 1420 1419 1419 1418 1417 1417 1416 1417 1418
1535 1536 1537 1537 1537 1538 1538 1539 1539 1539 1539 1538 1538 1538 1538 1539 1539 1539 1538 1538 1537 1537 1537 1536 1535 1534 1533 1532 1531 1530 1529 1528 1527 1525 1523 1522 1521 1520 1519 1517 1514 1512 1511 1509 1508 1506 1503 1500 1498 1494 1490 1486 1482 1479 1474 1469 1464 1459 1454 1451 1448 1446 1444 1443 1441 1440 1439 1438 1437 1435 1433 1432 1430 1428 1426 1424 1422 1421 1420 1419 1419 1418 1418 1419 1419
1535 1537 1537 1537 1538 1538 1538 1538 1539 1539 1539 1539 1539 1539 1539 1540 1539 1539 1538 1538 1537 1537 1537 1536 1535 1535 1534 1533 1532 1531 1530 1529 1528 1526 1525 1523 1522 1521 1519 1518 1515 1513 1511 1510 1509 1507 1504 1502 1499 1495 1490 1487 1483 1480 1475 1470 1464 1459 1455 1451 1449 1447 1445 1444 1443 1441 1440 1439 1437 1436 1434 1433 1431 1430 1429 1428 1426 1424 1423 1422 1422 1421 1421 1421 1421
1536 1537 1538 1538 1539 1539 1539 1539 1539 1539 1539 1539 1540 1540 1540 1540 1540 1539 1539 1538 1538 1537 1537 1537 1536 1535 1534 1533 1533 1532 1531 1530 1529 1527 1526 1525 1523 1522 1520 1519 1517 1514 1512 1511 1510 1508 1506 1503 1500 1496 1492 1488 1485 1482 1477 1471 1465 1460 1456 1452 1450 1448 1447 1445 1444 1442 1441 1440 1439 1437 1436 1435 1433 1432 1431 1430 1429 1428 1427 1426 1425 1425 1425 1425 1425
1536 1537 1538 1538 1538 1538 1539 1539 1539 1539 1540 1540 1540 1540 1541 1540 1540 1540 1540 1539 1538 1538 1537 1537 1537 1536 1535 1534 1534 1533 1532 1531 1530 1528 1527 1526 1524 1523 1522 1520 1518 1516 1514 1512 1511 1509 1507 1505 1502 1498 1494 1490 1487 1484 1479 1473 1467 1462 1458 1454 1451 1450 1448 1446 1445 1444 1442 1441 1440 1439 1438 1436 1435 1434 1433 1432 1431 1430 1430 1429 1429 1428 1428 1428 1428
1536 1537 1538 1538 1538 1538 1539 1539 1539 1540 1540 1540 1540 1540 1541 1541 1541 1541 1540 1539 1539 1538 1538 1537 1537 1536 1535 1535 1534 1533 1533 1532 1531 1530 1528 1527 1525 1524 1523 1521 1519 1517 1515 1514 1512 1510 1509 1506 1503 1500 1496 1492 1489 1486 1482 1477 1471 1465 1461 1457 1454 1451 1449 1448 1447 1446 1444 1443 1442 1441 1440 1438 1437 1436 1435 1434 1433 1433 1432 1432 1432 1432 1432 1432 1433
1536 1537 1537 1538 1539 1539 1539 1540 1540 1540 1540 1540 1541 1541 1541 1541 1541 1541 1540 1540 1539 1539 1538 1538 1538 1537 1536 1535 1535 1534 1534 1533 1532 1531 1530 1528 1527 1525 1524 1522 1521 1519 1517 1515 1513 1512 1510 1508 1505 1502 1498 1495 1491 1488 1485 1481 1476 1470 1466 1461 1458 1454 1452 1451 1450 1448 1447 1445 1444 1444 1442 1441 1440 1439 1438 1437 1437 1436 1436 1436 1436 1436 1436 1436 1437
1536 1537 1538 1538 1539 1539 1539 1539 1540 1540 1540 1541 1541 1541 1541 1541 1541 1540 1540 1540 1540 1539 1539 1539 1538 1538 1537 1536 1535 1535 1534 1533 1533 1532 1530 1529 1528 1526 1525 1524 1522 1520 1518 1517 1515 1513 1512 1510 1507 1504 1500 1497 1494 1491 1488 1485 1481 1477 1473 1468 1463 1459 1456 1454 1453 1452 1450 1448 1447 1446 1444 1443 1442 1442 1442 1441 1441 1440 1439 1439 1439 1440 1440 1440 1440
1536 1537 1538 1538 1538 1539 1539 1539 1539 1540 1540 1541 1541 1541 1541 1541 1541 1540 1540 1540 1540 1540 1539 1539 1539 1538 1538 1537 1536 1535 1535 1534 1533 1532 1531 1530 1528 1527 1526 1525 1523 1521 1520 1518 1517 1515 1513 1511 1509 1506 1503 1500 1497 1494 1492 1489 1486 1483 1480 1476 1471 1466 1462 1459 1457 1455 1454 1452 1450 1449 1447 1446 1445 1445 1445 1445 1444 1444 1444 1443 1443 1443 1443 1444 1444